{"data":{"norad_id":68916,"epoch":"2026-09-19T07:35:45.828096Z","epoch_age_seconds":117676,"freshness":"FRESH","line1":"1 68916U 26097X   26262.31650264  .00015365  00000+0  47713-3 0  9993","line2":"2 68916  97.2848  96.5274 0001689  84.1982 275.9453 15.33456038 21915","mean_motion":15.33456038,"eccentricity":0.0001689,"inclination_deg":97.2848,"raan_deg":96.5274,"arg_perigee_deg":84.1982,"mean_anomaly_deg":275.9453,"bstar":0.00047713,"rev_number":2191,"period_min":93.90552870874,"perigee_km":464.35444131842,"apogee_km":466.66622538763,"semimajor_km":6843.647333353,"source":"CELESTRAK","updated_at":"2026-09-20T09:00:44.050458Z"}}